Weather History for St. Joseph, MO

Change the Weather History Date:

Sunday, December 9, 2012

  Actual Average Record
Temperature  
Mean Temperature 31 °F 31 °F  
Max Temperature 42 °F 41 °F 66 °F (1925)
Min Temperature 20 °F 21 °F -15 °F (2005)
Degree Days  
Heating Degree Days 34 34  
Month to date heating degree days 188 291  
Since 1 July heating degree days 1300 1402  
Cooling Degree Days 0 0  
Month to date cooling degree days 0 0  
Year to date cooling degree days 1565 1221  
Moisture  
Dew Point 28 °F    
Average Humidity 75    
Maximum Humidity 100    
Minimum Humidity 49    
Precipitation  
Precipitation 0.01 in 0.05 in 0.93 in (2003)
Month to date precipitation 0.03 0.42  
Year to date precipitation 22.34 34.50  
Sea Level Pressure  
Sea Level Pressure 29.95 in    
Wind  
Wind Speed 12 mph (NW)    
Max Wind Speed 26 mph    
Max Gust Speed 32 mph    
Visibility 6 miles    
Events Rain    
T = Trace of Precipitation, MM = Missing Value Source: NWS Daily Summary

Daily Weather History Graph

Daily Weather History Graph

Search for Another Location

Airport:

Trip Planner

Search our weather history database for the weather conditions in past years. The results will help you decide how hot, cold, wet, or windy it might be!

Date:

Astronomy

Dec. 09, 2012 Rise Set
Actual Time 7:29 AM CST 4:54 PM CST
Civil Twilight 6:59 AM CST 5:25 PM CST
Nautical Twilight 6:25 AM CST 5:59 PM CST
Astronomical Twilight 5:52 AM CST 6:31 PM CST
Moon 3:03 AM CST (12/9) 2:02 PM CST (12/9)
Length of Visible Light 10h 26m
Length of Day
9h 25m
Waning Crescent, 18% of the Moon is Illuminated
Dec 9
Waning Crescent
Dec 13
New
Dec 19
First Quarter
Dec 28
Full
Jan 4
Last Quarter

Hourly Weather History & Observations

Time (CST) Temp. Windchill Dew Point Humidity Pressure Visibility Wind Dir Wind Speed Gust Speed Precip Events Conditions
12:53 AM 37.9 °F 35.5 °F 36.0 °F 93% 29.89 in 4.0 mi East 3.5 mph - N/A   Overcast
1:53 AM 39.0 °F 36.8 °F 37.0 °F 93% 29.88 in 4.0 mi East 3.5 mph - N/A   Overcast
2:53 AM 39.0 °F - 37.0 °F 93% 29.89 in 3.0 mi Calm Calm - N/A   Overcast
3:02 AM 39.2 °F - 37.4 °F 93% 29.88 in 2.5 mi Calm Calm - N/A   Overcast
3:23 AM 37.4 °F - 37.4 °F 100% 29.87 in 1.8 mi Calm Calm - N/A   Overcast
3:30 AM 37.4 °F - 37.4 °F 100% 29.87 in 1.5 mi Calm Calm - N/A   Overcast
3:53 AM 37.9 °F 35.5 °F 37.0 °F 97% 29.86 in 1.5 mi NNE 3.5 mph - 0.00 in   Overcast
4:42 AM 39.2 °F - 37.4 °F 93% 29.84 in 2.0 mi Calm Calm - N/A   Overcast
4:53 AM 39.0 °F - 37.0 °F 93% 29.85 in 2.0 mi Calm Calm - N/A   Overcast
5:13 AM 39.2 °F - 37.4 °F 93% 29.85 in 3.0 mi Calm Calm - N/A   Overcast
5:53 AM 39.0 °F - 37.0 °F 93% 29.88 in 3.0 mi Calm Calm - N/A   Overcast
6:39 AM 39.2 °F 37.0 °F 37.4 °F 93% 29.89 in 3.0 mi NW 3.5 mph - N/A   Overcast
6:46 AM 39.2 °F - 37.4 °F 93% 29.89 in 2.5 mi Calm Calm - 0.01 in Rain Light Rain
6:53 AM 39.0 °F 36.8 °F 37.0 °F 93% 29.91 in 2.5 mi NW 3.5 mph - 0.01 in Rain Light Rain
7:05 AM 39.2 °F - 37.4 °F 93% 29.89 in 2.5 mi Calm Calm - 0.00 in Rain Light Rain
7:37 AM 39.2 °F - 37.4 °F 93% 29.89 in 3.0 mi Calm Calm - 0.00 in   Overcast
7:53 AM 39.0 °F - 37.0 °F 93% 29.91 in 3.0 mi Calm Calm - 0.00 in   Overcast
8:04 AM 39.2 °F - 37.4 °F 93% 29.89 in 2.5 mi Calm Calm - N/A   Overcast
8:15 AM 39.2 °F - 37.4 °F 93% 29.89 in 3.0 mi Calm Calm - N/A   Overcast
8:53 AM 39.0 °F 34.8 °F 37.0 °F 93% 29.91 in 3.0 mi West 5.8 mph - N/A   Overcast
9:51 AM 39.2 °F 33.6 °F 37.4 °F 93% 29.91 in 5.0 mi WNW 8.1 mph - N/A   Overcast
9:53 AM 39.9 °F 35.1 °F 37.0 °F 89% 29.93 in 5.0 mi WNW 6.9 mph - N/A   Overcast
10:43 AM 41.0 °F 33.1 °F 35.6 °F 81% 29.92 in 6.0 mi NW 15.0 mph 25.3 mph N/A   Haze
10:53 AM 41.0 °F 32.5 °F 34.0 °F 76% 29.94 in 7.0 mi NW 17.3 mph 25.3 mph N/A   Overcast
11:53 AM 42.1 °F 33.9 °F 33.1 °F 70% 29.92 in 10.0 mi WNW 17.3 mph 26.5 mph N/A   Mostly Cloudy
12:22 PM 39.2 °F 29.3 °F 30.2 °F 70% 29.92 in 10.0 mi NW 20.7 mph - N/A   Scattered Clouds
12:53 PM 39.0 °F 29.0 °F 27.0 °F 62% 29.95 in 10.0 mi NW 20.7 mph - N/A   Clear
1:53 PM 37.0 °F 25.6 °F 21.9 °F 54% 29.97 in 10.0 mi NW 24.2 mph - N/A   Clear
2:53 PM 33.1 °F 21.5 °F 18.0 °F 54% 29.99 in 10.0 mi NW 19.6 mph - N/A   Clear
3:53 PM 30.0 °F 16.3 °F 14.0 °F 51% 30.02 in 10.0 mi NW 24.2 mph 28.8 mph N/A   Clear
4:53 PM 28.0 °F 18.1 °F 12.9 °F 53% 30.03 in 10.0 mi NW 11.5 mph 25.3 mph N/A   Clear
5:53 PM 26.1 °F 12.3 °F 12.9 °F 58% 30.06 in 10.0 mi NW 19.6 mph 26.5 mph N/A   Clear
6:43 PM 24.8 °F 10.7 °F 12.2 °F 59% 30.06 in 10.0 mi NW 19.6 mph 27.6 mph N/A   Overcast
6:53 PM 25.0 °F 10.9 °F 12.0 °F 58% 30.09 in 10.0 mi NW 19.6 mph 28.8 mph N/A   Overcast
7:07 PM 24.8 °F 9.3 °F 10.4 °F 54% 30.07 in 10.0 mi NW 24.2 mph 31.1 mph N/A   Overcast
7:53 PM 23.0 °F 8.0 °F 10.0 °F 58% 30.11 in 10.0 mi NW 20.7 mph 27.6 mph N/A   Overcast
8:53 PM 21.0 °F 7.1 °F 9.0 °F 60% 30.10 in 10.0 mi NNW 16.1 mph 26.5 mph N/A   Partly Cloudy
9:53 PM 21.0 °F 7.1 °F 9.0 °F 60% 30.12 in 10.0 mi NW 16.1 mph - N/A   Overcast
10:53 PM 21.0 °F 6.2 °F 9.0 °F 60% 30.12 in 10.0 mi NW 18.4 mph - N/A   Overcast
11:53 PM 19.9 °F 3.9 °F 9.0 °F 62% 30.12 in 10.0 mi NW 20.7 mph 26.5 mph N/A   Overcast